Mt. Clemens, MI

5:02 PM EDT on March 25, 2017 (GMT -0400)
Selfridge Angb

Weather History for KMTC - January, 2013

Change the Weather History Date:

Sunday, January 27, 2013

  Actual Average Record
Temperature  
Mean Temperature 17 °F -  
Max Temperature 26 °F 29 °F 57 °F (2002)
Min Temperature 8 °F 16 °F -5 °F (1966)
Degree Days  
Heating Degree Days 48    
Moisture  
Dew Point 18 °F    
Average Humidity 84    
Maximum Humidity 100    
Minimum Humidity 64    
Precipitation  
Precipitation 0.00 in - - ()
Snow  
Snow 0.00 in - - ()
Snow Depth 1.00 in    
Sea Level Pressure  
Sea Level Pressure 30.39 in    
Wind  
Wind Speed 6 mph (SSE)    
Max Wind Speed 14 mph    
Max Gust Speed 20 mph    
Visibility 7 miles    
Events Rain , Snow    
Averages and records for this station are not official NWS values.
T = Trace of Precipitation, MM = Missing Value Source: NWS Daily Summary

Daily Weather History Graph

Daily Weather History Graph

Search for Another Location

Airport or City:

Trip Planner

Search our weather history database for the weather conditions in past years. The results will help you decide how hot, cold, wet, or windy it might be!

Date:

Astronomy

Jan. 27, 2013 Rise Set
Actual Time 7:50 AM EST 5:38 PM EST
Civil Twilight 7:19 AM EST 6:08 PM EST
Nautical Twilight 6:45 AM EST 6:43 PM EST
Astronomical Twilight 6:12 AM EST 7:16 PM EST
Moon 6:34 PM EST (1/27) 7:40 AM EST (1/27)
Length of Visible Light 10h 49m
Length of Day
9h 48m
Full, 100% of the Moon is Illuminated
Jan 27
Full
Feb 3
Last Quarter
Feb 10
New
Feb 17
First Quarter
Feb 25
Full

Hourly Weather History & Observations

Time (EST) Temp. Windchill Dew Point Humidity Pressure Visibility Wind Dir Wind Speed Gust Speed Precip Events Conditions
4:10 AM 8.6 °F - 6.8 °F 92% 30.43 in 12.0 mi Calm Calm - N/A   Mostly Cloudy
4:55 AM 8.6 °F - 6.8 °F 92% 30.49 in 12.0 mi Calm Calm - N/A   Scattered Clouds
5:55 AM 8.6 °F - 5.0 °F 85% 30.51 in 12.0 mi Calm Calm - N/A   Mostly Cloudy
6:55 AM 10.4 °F - 6.8 °F 85% 30.51 in 12.0 mi Calm Calm - N/A   Mostly Cloudy
7:55 AM 8.6 °F - 6.8 °F 92% 30.50 in 7.0 mi Calm Calm - N/A   Mostly Cloudy
8:55 AM 12.2 °F - 10.4 °F 92% 30.51 in 7.0 mi Calm Calm - N/A   Mostly Cloudy
9:55 AM 23.0 °F 15.8 °F 19.4 °F 86% 30.52 in 7.0 mi SE 5.8 mph - N/A   Mostly Cloudy
10:55 AM 24.8 °F 16.1 °F 15.8 °F 69% 30.52 in 10.0 mi South 8.1 mph - N/A   Mostly Cloudy
11:55 AM 26.6 °F 15.2 °F 17.6 °F 69% 30.51 in 10.0 mi South 13.8 mph - N/A   Mostly Cloudy
12:55 PM 26.6 °F 15.7 °F 17.6 °F 69% 30.48 in 10.0 mi South 12.7 mph 19.6 mph N/A   Overcast
1:55 PM 26.6 °F 15.2 °F 15.8 °F 64% 30.46 in 10.0 mi South 13.8 mph - N/A   Overcast
2:55 PM 26.6 °F 15.2 °F 17.6 °F 69% 30.42 in 10.0 mi SSE 13.8 mph - N/A   Overcast
3:55 PM 26.6 °F 16.2 °F 19.4 °F 74% 30.39 in 10.0 mi SSE 11.5 mph - N/A   Overcast
4:55 PM 26.6 °F 16.8 °F 19.4 °F 74% 30.39 in 10.0 mi South 10.4 mph - N/A   Overcast
5:55 PM 26.6 °F 15.7 °F 19.4 °F 74% 30.39 in 10.0 mi SSE 12.7 mph - N/A   Overcast
6:55 PM 26.6 °F 17.5 °F 21.2 °F 80% 30.40 in 10.0 mi South 9.2 mph - N/A   Overcast
7:35 PM 26.6 °F 16.2 °F 21.2 °F 80% 30.31 in 7.0 mi South 11.5 mph - N/A Snow Light Snow
7:57 PM 26.6 °F 16.8 °F 23.0 °F 86% 30.35 in 7.0 mi SSE 10.4 mph - N/A Snow Light Snow
8:36 PM 26.6 °F 19.1 °F 24.8 °F 93% 30.30 in 3.0 mi South 6.9 mph - N/A Snow Light Snow
8:55 PM 26.6 °F 17.5 °F 24.8 °F 93% 30.35 in 2.0 mi SSE 9.2 mph - N/A Snow Light Snow
9:16 PM 26.6 °F 16.2 °F 24.8 °F 93% 30.24 in 1.5 mi SE 11.5 mph - N/A Snow Light Snow
9:55 PM 26.6 °F 15.7 °F 26.6 °F 100% 30.26 in 1.5 mi SE 12.7 mph - N/A Snow Light Snow
10:18 PM 26.6 °F 15.2 °F 26.6 °F 100% 30.20 in 1.0 mi SE 13.8 mph - N/A Snow Light Snow
10:35 PM 26.6 °F 16.2 °F 26.6 °F 100% 30.19 in 2.0 mi SSE 11.5 mph - N/A Snow Light Snow
10:55 PM 26.6 °F 15.2 °F 26.6 °F 100% 30.22 in 2.0 mi SE 13.8 mph - N/A Rain , Snow Light Freezing Rain